FDX1640 KMEM-KBHM

Flight info

Callsign FDX1640
Flight time 1h 8m
Altitude 7000
Route ELVIS4 EFOUR ICAVY T239 VLKNN
Aircraft C208/L-VGD/C

Departure

Time 2026-04-22 00:37
Airport Memphis International Airport (KMEM)

Arrival

Time 2026-04-22 01:45
Airport Birmingham-Shuttlesworth International Airport (KBHM)
Time Latitude Longitude Altitude Speed Heading
2026-04-22 00:20 35.06706 -89.98315 326 ft 0 kts 115°
2026-04-22 00:30 35.06703 -89.98308 329 ft 5 kts 107°
2026-04-22 00:30 35.06718 -89.98213 328 ft 18 kts 63°
2026-04-22 00:30 35.06727 -89.98046 329 ft 15 kts 99°
2026-04-22 00:31 35.06623 -89.98020 329 ft 17 kts 180°
2026-04-22 00:31 35.06583 -89.98119 329 ft 20 kts 271°
2026-04-22 00:31 35.06535 -89.98243 329 ft 16 kts 183°
2026-04-22 00:31 35.06392 -89.98248 329 ft 21 kts 182°
2026-04-22 00:32 35.06240 -89.98254 329 ft 18 kts 181°
2026-04-22 00:32 35.06125 -89.98259 327 ft 17 kts 181°
2026-04-22 00:32 35.06093 -89.98260 329 ft 0 kts 181°
2026-04-22 00:34 35.06086 -89.98261 329 ft 5 kts 181°
2026-04-22 00:34 35.06023 -89.98303 329 ft 17 kts 252°
2026-04-22 00:34 35.06022 -89.98476 328 ft 20 kts 253°
2026-04-22 00:35 35.05959 -89.98514 329 ft 0 kts 175°
2026-04-22 00:35 35.05922 -89.98511 329 ft 12 kts 176°
2026-04-22 00:35 35.05857 -89.98392 328 ft 36 kts 91°
2026-04-22 00:36 35.05842 -89.97857 333 ft 88 kts 92°
2026-04-22 00:36 35.05812 -89.97019 485 ft 105 kts 94°
2026-04-22 00:36 35.05768 -89.96083 654 ft 114 kts 96°
2026-04-22 00:36 35.05728 -89.95087 779 ft 123 kts 97°
2026-04-22 00:37 35.05683 -89.94034 1076 ft 125 kts 99°
2026-04-22 00:37 35.05698 -89.92969 1360 ft 126 kts 92°
2026-04-22 00:37 35.05727 -89.91907 1659 ft 125 kts 93°
2026-04-22 00:37 35.05784 -89.90831 1973 ft 129 kts 92°
2026-04-22 00:38 35.05713 -89.89765 2267 ft 125 kts 111°
2026-04-22 00:38 35.05415 -89.88795 2573 ft 122 kts 124°
2026-04-22 00:38 35.05056 -89.87852 2876 ft 123 kts 126°
2026-04-22 00:38 35.04670 -89.86910 3178 ft 125 kts 127°
2026-04-22 00:39 35.04259 -89.85972 3478 ft 126 kts 128°
2026-04-22 00:39 35.03827 -89.85041 3765 ft 127 kts 128°
2026-04-22 00:39 35.03398 -89.84099 4058 ft 127 kts 128°
2026-04-22 00:39 35.02974 -89.83147 4355 ft 129 kts 128°
2026-04-22 00:40 35.02554 -89.82178 4661 ft 130 kts 128°
2026-04-22 00:40 35.02131 -89.81199 4965 ft 131 kts 128°
2026-04-22 00:40 35.01712 -89.80215 5262 ft 131 kts 128°
2026-04-22 00:40 35.01299 -89.79220 5564 ft 131 kts 128°
2026-04-22 00:41 35.00887 -89.78225 5857 ft 131 kts 128°
2026-04-22 00:41 35.00479 -89.77231 6158 ft 131 kts 128°
2026-04-22 00:41 35.00075 -89.76240 6460 ft 130 kts 128°
2026-04-22 00:41 34.99672 -89.75250 6736 ft 132 kts 128°
2026-04-22 00:42 34.99247 -89.74232 6881 ft 142 kts 128°
2026-04-22 00:42 34.98758 -89.73131 6933 ft 153 kts 128°
2026-04-22 00:42 34.98222 -89.71972 6967 ft 161 kts 128°
2026-04-22 00:42 34.97656 -89.70765 6982 ft 166 kts 128°
2026-04-22 00:43 34.97075 -89.69527 6985 ft 170 kts 128°
2026-04-22 00:43 34.96485 -89.68271 6991 ft 172 kts 128°
2026-04-22 00:43 34.95890 -89.67003 6994 ft 173 kts 128°
2026-04-22 00:43 34.95290 -89.65727 6995 ft 174 kts 128°
2026-04-22 00:44 34.94687 -89.64446 6997 ft 174 kts 128°
2026-04-22 00:44 34.94085 -89.63166 6998 ft 174 kts 128°
2026-04-22 00:44 34.93481 -89.61882 6999 ft 175 kts 128°
2026-04-22 00:44 34.92878 -89.60599 6998 ft 175 kts 128°
2026-04-22 00:45 34.92275 -89.59315 7002 ft 174 kts 128°
2026-04-22 00:45 34.91672 -89.58033 7001 ft 174 kts 128°
2026-04-22 00:45 34.91069 -89.56750 7005 ft 174 kts 128°
2026-04-22 00:45 34.90455 -89.55477 7005 ft 172 kts 133°
2026-04-22 00:46 34.89697 -89.54375 7007 ft 169 kts 140°
2026-04-22 00:46 34.88898 -89.53323 7010 ft 169 kts 142°
2026-04-22 00:46 34.88086 -89.52289 7010 ft 169 kts 142°
2026-04-22 00:46 34.87268 -89.51266 7008 ft 168 kts 143°
2026-04-22 00:47 34.86449 -89.50249 7008 ft 168 kts 143°
2026-04-22 00:47 34.85628 -89.49231 7010 ft 169 kts 143°
2026-04-22 00:47 34.84807 -89.48211 7012 ft 169 kts 143°
2026-04-22 00:47 34.83981 -89.47193 7011 ft 169 kts 143°
2026-04-22 00:48 34.83150 -89.46177 7014 ft 169 kts 143°
2026-04-22 00:48 34.82319 -89.45160 7014 ft 169 kts 143°
2026-04-22 00:48 34.81489 -89.44145 7015 ft 169 kts 143°
2026-04-22 00:48 34.80649 -89.43149 7015 ft 167 kts 147°
2026-04-22 00:49 34.79798 -89.42174 7013 ft 168 kts 144°
2026-04-22 00:49 34.78972 -89.41169 7020 ft 168 kts 143°
2026-04-22 00:49 34.78157 -89.40159 7020 ft 168 kts 142°
2026-04-22 00:49 34.77386 -89.39087 7018 ft 169 kts 137°
2026-04-22 00:50 34.76676 -89.37937 7020 ft 171 kts 133°
2026-04-22 00:50 34.76023 -89.36729 7022 ft 172 kts 130°
2026-04-22 00:50 34.75406 -89.35480 7022 ft 173 kts 128°
2026-04-22 00:50 34.74805 -89.34216 7021 ft 173 kts 128°
2026-04-22 00:51 34.74213 -89.32946 7025 ft 173 kts 128°
2026-04-22 00:51 34.73625 -89.31669 7026 ft 174 kts 127°
2026-04-22 00:51 34.73049 -89.30377 7019 ft 173 kts 126°
2026-04-22 00:51 34.72485 -89.29104 7021 ft 173 kts 126°
2026-04-22 00:52 34.71918 -89.27792 7021 ft 173 kts 125°
2026-04-22 00:52 34.71375 -89.26507 7020 ft 173 kts 124°
2026-04-22 00:52 34.70831 -89.25200 7023 ft 173 kts 124°
2026-04-22 00:52 34.70291 -89.23888 7023 ft 174 kts 123°
2026-04-22 00:53 34.69752 -89.22574 7022 ft 174 kts 124°
2026-04-22 00:53 34.69202 -89.21267 7021 ft 174 kts 124°
2026-04-22 00:53 34.68654 -89.19957 7021 ft 174 kts 124°
2026-04-22 00:53 34.68107 -89.18650 7021 ft 173 kts 124°
2026-04-22 00:54 34.67562 -89.17346 7025 ft 173 kts 124°
2026-04-22 00:54 34.67016 -89.16039 7023 ft 173 kts 124°
2026-04-22 00:54 34.66471 -89.14734 7027 ft 173 kts 124°
2026-04-22 00:54 34.65907 -89.13442 7027 ft 173 kts 126°
2026-04-22 00:55 34.65319 -89.12168 7027 ft 173 kts 127°
2026-04-22 00:55 34.64723 -89.10899 7026 ft 173 kts 127°
2026-04-22 00:55 34.63537 -89.08356 7021 ft 173 kts 126°
2026-04-22 00:56 34.62948 -89.07085 7029 ft 173 kts 126°
2026-04-22 00:56 34.62360 -89.05814 7027 ft 173 kts 126°
2026-04-22 00:56 34.61770 -89.04534 7018 ft 174 kts 126°
2026-04-22 00:56 34.61182 -89.03254 7010 ft 174 kts 126°
2026-04-22 00:57 34.60594 -89.01977 7009 ft 173 kts 126°
2026-04-22 00:57 34.60006 -89.00700 7008 ft 173 kts 126°
2026-04-22 00:57 34.59418 -88.99422 7012 ft 174 kts 126°
2026-04-22 00:57 34.58829 -88.98142 7006 ft 174 kts 126°
2026-04-22 00:58 34.58241 -88.96862 7008 ft 174 kts 126°
2026-04-22 00:58 34.57653 -88.95584 7007 ft 173 kts 126°
2026-04-22 00:58 34.57065 -88.94308 7007 ft 173 kts 126°
2026-04-22 00:58 34.56479 -88.93032 7008 ft 173 kts 126°
2026-04-22 00:59 34.55891 -88.91760 7009 ft 173 kts 126°
2026-04-22 00:59 34.55303 -88.90484 7011 ft 173 kts 126°
2026-04-22 00:59 34.54715 -88.89212 7012 ft 173 kts 126°
2026-04-22 00:59 34.54126 -88.87937 7013 ft 173 kts 126°
2026-04-22 01:00 34.53537 -88.86660 7013 ft 173 kts 126°
2026-04-22 01:00 34.52948 -88.85383 7010 ft 173 kts 126°
2026-04-22 01:00 34.52361 -88.84106 7013 ft 173 kts 125°
2026-04-22 01:00 34.51772 -88.82830 7014 ft 173 kts 126°
2026-04-22 01:01 34.51180 -88.81556 7014 ft 174 kts 125°
2026-04-22 01:01 34.50590 -88.80280 7011 ft 173 kts 125°
2026-04-22 01:01 34.49999 -88.79004 7010 ft 173 kts 125°
2026-04-22 01:01 34.49414 -88.77727 7011 ft 174 kts 124°
2026-04-22 01:02 34.48877 -88.76409 7009 ft 175 kts 121°
2026-04-22 01:02 34.48369 -88.75071 7010 ft 175 kts 120°
2026-04-22 01:02 34.47866 -88.73727 7010 ft 175 kts 120°
2026-04-22 01:02 34.47362 -88.72387 7011 ft 175 kts 121°
2026-04-22 01:03 34.46853 -88.71050 7009 ft 174 kts 120°
2026-04-22 01:03 34.46345 -88.69726 7013 ft 173 kts 121°
2026-04-22 01:03 34.45838 -88.68410 7013 ft 172 kts 121°
2026-04-22 01:03 34.45337 -88.67116 7011 ft 172 kts 121°
2026-04-22 01:04 34.44829 -88.65806 7005 ft 172 kts 121°
2026-04-22 01:04 34.44322 -88.64498 7005 ft 172 kts 121°
2026-04-22 01:04 34.43819 -88.63189 7006 ft 172 kts 120°
2026-04-22 01:04 34.43318 -88.61876 7004 ft 172 kts 121°
2026-04-22 01:05 34.42817 -88.60565 7005 ft 172 kts 120°
2026-04-22 01:05 34.42316 -88.59253 7005 ft 172 kts 121°
2026-04-22 01:05 34.41808 -88.57924 7006 ft 172 kts 121°
2026-04-22 01:05 34.41312 -88.56628 7006 ft 172 kts 121°
2026-04-22 01:06 34.40809 -88.55316 7003 ft 172 kts 121°
2026-04-22 01:06 34.40305 -88.54005 7004 ft 172 kts 121°
2026-04-22 01:06 34.39802 -88.52696 7007 ft 172 kts 121°
2026-04-22 01:06 34.39299 -88.51386 7004 ft 171 kts 121°
2026-04-22 01:07 34.38797 -88.50078 7004 ft 171 kts 121°
2026-04-22 01:07 34.38295 -88.48770 7007 ft 171 kts 121°
2026-04-22 01:07 34.37794 -88.47462 7007 ft 171 kts 121°
2026-04-22 01:07 34.37289 -88.46156 7001 ft 172 kts 120°
2026-04-22 01:08 34.36785 -88.44842 7003 ft 172 kts 120°
2026-04-22 01:08 34.36281 -88.43530 7003 ft 172 kts 120°
2026-04-22 01:08 34.35777 -88.42217 7004 ft 172 kts 120°
2026-04-22 01:08 34.35271 -88.40904 7004 ft 172 kts 120°
2026-04-22 01:09 34.34766 -88.39590 7004 ft 172 kts 120°
2026-04-22 01:09 34.34259 -88.38275 7004 ft 172 kts 120°
2026-04-22 01:09 34.33753 -88.36962 7005 ft 172 kts 120°
2026-04-22 01:09 34.33245 -88.35648 7005 ft 172 kts 120°
2026-04-22 01:10 34.32737 -88.34334 7006 ft 173 kts 120°
2026-04-22 01:10 34.32229 -88.33019 7006 ft 173 kts 120°
2026-04-22 01:10 34.31715 -88.31693 7005 ft 175 kts 120°
2026-04-22 01:10 34.31200 -88.30361 7005 ft 175 kts 120°
2026-04-22 01:11 34.30682 -88.29023 6996 ft 176 kts 120°
2026-04-22 01:11 34.30164 -88.27685 6995 ft 176 kts 120°
2026-04-22 01:11 34.29646 -88.26346 6997 ft 176 kts 120°
2026-04-22 01:11 34.29127 -88.25007 6996 ft 176 kts 120°
2026-04-22 01:12 34.28608 -88.23667 6999 ft 176 kts 120°
2026-04-22 01:12 34.28095 -88.22344 7001 ft 176 kts 120°
2026-04-22 01:12 34.27575 -88.21005 6999 ft 176 kts 120°
2026-04-22 01:12 34.27056 -88.19666 6999 ft 176 kts 120°
2026-04-22 01:13 34.26529 -88.18308 6996 ft 176 kts 120°
2026-04-22 01:13 34.26185 -88.17422 6996 ft 176 kts 120°
2026-04-22 01:13 34.25665 -88.16082 6998 ft 176 kts 120°
2026-04-22 01:13 34.25145 -88.14741 6996 ft 176 kts 120°
2026-04-22 01:14 34.24624 -88.13402 6996 ft 176 kts 120°
2026-04-22 01:14 34.23936 -88.11629 6999 ft 176 kts 120°
2026-04-22 01:14 34.23416 -88.10287 6997 ft 176 kts 120°
2026-04-22 01:14 34.22894 -88.08947 6993 ft 176 kts 120°
2026-04-22 01:15 34.22541 -88.08039 6993 ft 177 kts 120°
2026-04-22 01:15 34.22016 -88.06692 6995 ft 177 kts 120°
2026-04-22 01:15 34.21496 -88.05360 6996 ft 178 kts 120°
2026-04-22 01:15 34.20970 -88.04008 6995 ft 178 kts 120°
2026-04-22 01:16 34.20444 -88.02656 6998 ft 178 kts 120°
2026-04-22 01:16 34.19909 -88.01308 6995 ft 178 kts 121°
2026-04-22 01:16 34.19312 -88.00010 6995 ft 176 kts 124°
2026-04-22 01:16 34.18692 -87.98740 6996 ft 175 kts 124°
2026-04-22 01:17 34.18074 -87.97475 6999 ft 175 kts 124°
2026-04-22 01:17 34.17453 -87.96209 6994 ft 175 kts 124°
2026-04-22 01:17 34.16836 -87.94947 6994 ft 175 kts 124°
2026-04-22 01:17 34.16219 -87.93684 6997 ft 174 kts 124°
2026-04-22 01:18 34.15605 -87.92423 6995 ft 175 kts 124°
2026-04-22 01:18 34.14990 -87.91159 6994 ft 174 kts 124°
2026-04-22 01:18 34.14375 -87.89896 6994 ft 174 kts 124°
2026-04-22 01:18 34.13759 -87.88634 6994 ft 175 kts 124°
2026-04-22 01:19 34.13143 -87.87372 6996 ft 174 kts 124°
2026-04-22 01:19 34.12527 -87.86108 6999 ft 175 kts 124°
2026-04-22 01:19 34.11908 -87.84841 6985 ft 176 kts 124°
2026-04-22 01:19 34.11287 -87.83568 6963 ft 176 kts 124°
2026-04-22 01:20 34.10665 -87.82295 6949 ft 176 kts 124°
2026-04-22 01:20 34.10052 -87.81025 6948 ft 175 kts 124°
2026-04-22 01:20 34.09454 -87.79746 6945 ft 175 kts 123°
2026-04-22 01:20 34.08861 -87.78465 6942 ft 175 kts 123°
2026-04-22 01:21 34.08270 -87.77186 6940 ft 175 kts 123°
2026-04-22 01:21 34.07684 -87.75926 6937 ft 174 kts 123°
2026-04-22 01:21 34.07091 -87.74652 6941 ft 174 kts 123°
2026-04-22 01:21 34.06489 -87.73363 6943 ft 174 kts 123°
2026-04-22 01:22 34.05902 -87.72106 6943 ft 175 kts 123°
2026-04-22 01:22 34.05307 -87.70831 6938 ft 174 kts 123°
2026-04-22 01:22 34.04714 -87.69558 6940 ft 174 kts 123°
2026-04-22 01:22 34.04120 -87.68291 6943 ft 174 kts 123°
2026-04-22 01:23 34.03526 -87.67024 6950 ft 174 kts 123°
2026-04-22 01:23 34.02931 -87.65756 6952 ft 174 kts 123°
2026-04-22 01:23 34.02336 -87.64488 6954 ft 174 kts 123°
2026-04-22 01:23 34.01741 -87.63219 6956 ft 174 kts 123°
2026-04-22 01:24 34.01145 -87.61954 6954 ft 174 kts 123°
2026-04-22 01:24 34.00548 -87.60690 6954 ft 173 kts 123°
2026-04-22 01:24 33.99952 -87.59427 6960 ft 173 kts 123°
2026-04-22 01:24 33.99358 -87.58164 6961 ft 173 kts 123°
2026-04-22 01:25 33.98771 -87.56896 6963 ft 174 kts 120°
2026-04-22 01:25 33.98380 -87.55506 6964 ft 176 kts 110°
2026-04-22 01:25 33.98005 -87.54108 6967 ft 175 kts 113°
2026-04-22 01:25 33.97594 -87.52725 6969 ft 175 kts 114°
2026-04-22 01:26 33.97175 -87.51345 6975 ft 175 kts 114°
2026-04-22 01:26 33.96758 -87.49964 6978 ft 176 kts 114°
2026-04-22 01:26 33.96345 -87.48578 6976 ft 176 kts 113°
2026-04-22 01:26 33.95937 -87.47190 6980 ft 176 kts 113°
2026-04-22 01:27 33.95530 -87.45802 6982 ft 176 kts 113°
2026-04-22 01:27 33.95124 -87.44414 6982 ft 176 kts 113°
2026-04-22 01:27 33.94720 -87.43028 6983 ft 175 kts 113°
2026-04-22 01:27 33.94317 -87.41641 6987 ft 176 kts 113°
2026-04-22 01:28 33.93913 -87.40248 6906 ft 179 kts 113°
2026-04-22 01:28 33.93496 -87.38807 6714 ft 184 kts 113°
2026-04-22 01:28 33.93073 -87.37344 6515 ft 186 kts 112°
2026-04-22 01:28 33.92648 -87.35875 6310 ft 186 kts 112°
2026-04-22 01:29 33.92223 -87.34408 6105 ft 185 kts 112°
2026-04-22 01:29 33.91801 -87.32953 5899 ft 183 kts 112°
2026-04-22 01:29 33.91390 -87.31506 5690 ft 182 kts 111°
2026-04-22 01:29 33.90969 -87.30069 5492 ft 182 kts 111°
2026-04-22 01:30 33.90541 -87.28627 5293 ft 184 kts 111°
2026-04-22 01:30 33.90115 -87.27176 5103 ft 183 kts 111°
2026-04-22 01:30 33.89702 -87.25754 5059 ft 175 kts 111°
2026-04-22 01:30 33.89306 -87.24408 5073 ft 171 kts 111°
2026-04-22 01:31 33.88912 -87.23058 5045 ft 172 kts 111°
2026-04-22 01:31 33.88518 -87.21701 5016 ft 171 kts 111°
2026-04-22 01:31 33.88128 -87.20354 4995 ft 171 kts 111°
2026-04-22 01:31 33.87735 -87.19002 4984 ft 170 kts 111°
2026-04-22 01:32 33.87345 -87.17660 4943 ft 170 kts 111°
2026-04-22 01:32 33.86954 -87.16324 4942 ft 169 kts 111°
2026-04-22 01:32 33.86563 -87.14987 4936 ft 169 kts 111°
2026-04-22 01:32 33.86172 -87.13650 4937 ft 169 kts 111°
2026-04-22 01:33 33.85780 -87.12312 4933 ft 170 kts 111°
2026-04-22 01:33 33.85388 -87.10974 4931 ft 169 kts 111°
2026-04-22 01:33 33.84996 -87.09639 4955 ft 169 kts 111°
2026-04-22 01:33 33.84605 -87.08303 4957 ft 169 kts 111°
2026-04-22 01:34 33.84213 -87.06967 4960 ft 169 kts 111°
2026-04-22 01:34 33.83821 -87.05631 4959 ft 169 kts 111°
2026-04-22 01:34 33.83391 -87.04302 4860 ft 174 kts 118°
2026-04-22 01:34 33.82796 -87.03008 4661 ft 179 kts 122°
2026-04-22 01:35 33.82156 -87.01708 4458 ft 182 kts 122°
2026-04-22 01:35 33.81497 -87.00400 4257 ft 183 kts 123°
2026-04-22 01:35 33.80831 -86.99097 4096 ft 182 kts 123°
2026-04-22 01:35 33.80172 -86.97813 4022 ft 178 kts 123°
2026-04-22 01:36 33.79533 -86.96573 3988 ft 175 kts 123°
2026-04-22 01:36 33.78888 -86.95318 3973 ft 173 kts 123°
2026-04-22 01:36 33.78260 -86.94088 3974 ft 172 kts 123°
2026-04-22 01:36 33.77649 -86.92851 3979 ft 172 kts 123°
2026-04-22 01:37 33.77039 -86.91616 3980 ft 172 kts 123°
2026-04-22 01:37 33.76435 -86.90400 3981 ft 172 kts 123°
2026-04-22 01:37 33.75821 -86.89168 3980 ft 172 kts 123°
2026-04-22 01:37 33.75210 -86.87931 3976 ft 172 kts 123°
2026-04-22 01:38 33.74600 -86.86694 3983 ft 172 kts 123°
2026-04-22 01:38 33.73989 -86.85458 3983 ft 172 kts 123°
2026-04-22 01:38 33.73367 -86.84216 3915 ft 175 kts 124°
2026-04-22 01:38 33.72741 -86.82974 3874 ft 172 kts 123°
2026-04-22 01:39 33.72149 -86.81727 3778 ft 170 kts 122°
2026-04-22 01:39 33.71544 -86.80504 3584 ft 171 kts 125°
2026-04-22 01:39 33.70873 -86.79310 3333 ft 174 kts 128°
2026-04-22 01:39 33.70128 -86.78155 3111 ft 172 kts 130°
2026-04-22 01:40 33.69429 -86.77025 3027 ft 167 kts 128°
2026-04-22 01:40 33.68753 -86.75893 2906 ft 166 kts 128°
2026-04-22 01:40 33.68090 -86.74767 2824 ft 164 kts 130°
2026-04-22 01:40 33.67367 -86.73715 2707 ft 164 kts 135°
2026-04-22 01:41 33.66630 -86.72806 2631 ft 140 kts 138°
2026-04-22 01:41 33.65937 -86.72040 2408 ft 132 kts 146°
2026-04-22 01:41 33.65180 -86.71479 2196 ft 126 kts 157°
2026-04-22 01:41 33.64402 -86.71037 1970 ft 123 kts 159°
2026-04-22 01:42 33.63630 -86.70620 1783 ft 119 kts 161°
2026-04-22 01:42 33.62844 -86.70306 1663 ft 120 kts 169°
2026-04-22 01:42 33.62015 -86.70244 1655 ft 122 kts 186°
2026-04-22 01:42 33.61171 -86.70424 1629 ft 127 kts 198°
2026-04-22 01:43 33.60333 -86.70761 1601 ft 120 kts 201°
2026-04-22 01:43 33.59624 -86.71101 1534 ft 105 kts 205°
2026-04-22 01:43 33.59001 -86.71526 1392 ft 102 kts 216°
2026-04-22 01:43 33.58510 -86.72034 1202 ft 89 kts 227°
2026-04-22 01:44 33.58115 -86.72603 1003 ft 89 kts 233°
2026-04-22 01:44 33.57762 -86.73192 869 ft 86 kts 235°
2026-04-22 01:44 33.57430 -86.73774 767 ft 85 kts 236°
2026-04-22 01:44 33.57097 -86.74354 654 ft 81 kts 236°
2026-04-22 01:45 33.56831 -86.74815 635 ft 50 kts 235°
2026-04-22 01:45 33.56642 -86.75140 631 ft 39 kts 235°
2026-04-22 01:45 33.56493 -86.75397 628 ft 33 kts 236°
2026-04-22 01:45 33.56333 -86.75574 626 ft 21 kts 161°
2026-04-22 01:46 33.56285 -86.75569 625 ft 0 kts 212°
2026-04-22 01:46 33.56265 -86.75589 627 ft 11 kts 231°
2026-04-22 01:46 33.56199 -86.75705 628 ft 22 kts 237°
2026-04-22 01:47 33.56091 -86.75892 620 ft 26 kts 236°
2026-04-22 01:47 33.55967 -86.76108 616 ft 37 kts 236°
2026-04-22 01:47 33.55840 -86.76328 609 ft 32 kts 235°
2026-04-22 01:47 33.55726 -86.76527 617 ft 23 kts 234°
2026-04-22 01:48 33.55628 -86.76697 611 ft 20 kts 236°
2026-04-22 01:48 33.55524 -86.76877 601 ft 29 kts 236°
2026-04-22 01:48 33.55432 -86.76888 600 ft 12 kts 171°
2026-04-22 01:48 33.55384 -86.76893 599 ft 0 kts 174°